User: anonymous   Login
Location: Cimarron National Grasslands
(37.1250°N, 101.7500°W)
Time: 11:00:52
(UTC-05:00)
Language:

Ariane Rocket - Orbit

View from above orbital plane
View from above orbital plane
View from above satellite
View from above satellite

Ground track
Ground track

The orbit data is extracted from the following two-line orbital elements,

1 23561U 95021B   17179.62735347 +.00000006 +00000-0 +17338-4 0  9998
2 23561 098.7929 181.0822 0006102 217.6579 280.0130 14.37818740162670
Epoch (UTC): 28 June 2017 15:03:23
Eccentricity: 0.0006102
inclination: 98.7929°
perigee height: 761 km
apogee height: 770 km
right ascension of ascending node: 181.0822°
argument of perigee: 217.6579°
revolutions per day: 14.37818740
mean anomaly at epoch: 280.0130°
orbit number at epoch: 16267

The dashed part of the orbit path shows where the satellite is in the earth's shadow,  

DLR